Location: Caltech
(34.1382°N, 118.1253°W)
Time: 03:25:49
(UTC-07:00)

Cosmos 1606 - Visible Passes

Search period start: 25 April 2017 00:00
Search period end: 05 May 2017 00:00
Orbit: 506 x 533 km, 82.5° (Epoch: 23 April)

Date Brightness Start Highest point End Pass type
(mag) Time Alt. Az. Time Alt. Az. Time Alt. Az.
25 Apr 5.8 22:34:54 10° N 22:34:54 10° N 22:34:54 10° N visible
26 Apr 5.5 22:20:41 12° N 22:20:41 12° N 22:21:02 10° N visible
27 Apr 5.2 22:06:25 15° NNE 22:06:25 15° NNE 22:07:07 10° NNE visible
28 Apr 4.9 21:52:06 18° NNE 21:52:06 18° NNE 21:53:11 10° NNE visible
29 Apr 4.5 21:37:44 21° NNE 21:37:44 21° NNE 21:39:13 10° NNE visible
30 Apr 4.2 21:23:19 24° NE 21:23:19 24° NE 21:25:13 10° NNE visible
30 Apr 5.9 22:58:21 11° WNW 22:58:21 11° WNW 22:58:53 10° NW visible
01 May 3.9 21:08:49 25° ENE 21:08:49 25° ENE 21:11:11 10° NNE visible
01 May 5.6 22:43:51 13° WNW 22:43:51 13° WNW 22:45:40 10° NW visible
02 May 3.9 20:54:14 23° E 20:54:14 23° E 20:57:06 10° NE visible
02 May 5.3 22:29:15 16° W 22:29:47 16° WNW 22:32:11 10° NW visible
03 May 4.1 20:39:33 19° ESE 20:40:13 19° E 20:42:58 10° NE visible
03 May 5.1 22:14:34 16° WSW 22:15:51 19° WNW 22:18:36 10° NNW visible
04 May 4.3 20:24:44 13° ESE 20:26:22 16° E 20:28:45 10° NE visible
04 May 4.9 21:59:45 14° WSW 22:01:55 23° WNW 22:04:56 10° NNW visible
